sat.trackr.live / text

‹ back to catalog

QIANFAN-140

NORAD 69086 · 2026-104P

PAYLOAD ACTIVE UNKNOWN

§ Identity

Operator
Country
PRC
Launch date
2026-05-12
Launch site
TAISC
Launch vehicle
Mass (kg)
RCS (m²)

External: N2YO · Heavens-Above · Gunter

§ Orbital elements

Epoch: 2026-05-25T04:20:52.948032Z

Period
101.26 min
Inclination
88.9866°
Eccentricity
0.0002941
Mean motion
14.22142322 rev/d
Perigee alt
816.0 km
Apogee alt
820.2 km
Semi-major
7,196.3 km
B*
3.1966e-5
RAAN
344.2462°
Arg perigee
173.8947°
Mean anomaly
186.2281°
Rev number
182

§ Raw data

QIANFAN-1401 69086U 26104P   26145.18116838  .00000085  00000+0  31966-4 0  99972 69086  88.9866 344.2462 0002941 173.8947 186.2281 14.22142322  1828

JSON: /api/v1/satellites/69086 · /tle

For live sub-satellite position, see the globe view (requires WebGL).

§ Visibility from observer

Set your observer location to see the next 7 days of passes ≥ 10°. The values pass through the URL so the page stays shareable.

No JS? Fill the form by hand. The geolocation button needs JavaScript.